Time,TemperatureF,DewpointF,PressureIn,WindDirection,WindDirectionDegrees,WindSpeedMPH,WindSpeedGustMPH,Humidity,HourlyPrecipIn,Conditions,Clouds,dailyrainin,SoftwareType,DateUTC
2013-06-21 00:04:00,73.2,0.0,30.08,ESE,123,0.0,0.0,0,0.00,,---,0.00,VWS V14.00,2013-06-21 05:04:00,
2013-06-21 00:09:00,73.2,0.0,30.08,ESE,114,0.0,6.0,0,0.00,,---,0.00,VWS V14.00,2013-06-21 05:09:00,
2013-06-21 00:15:00,73.2,0.0,30.08,SE,132,4.0,9.0,0,0.00,,---,0.00,VWS V14.00,2013-06-21 05:15:00,
2013-06-21 00:20:00,73.2,0.0,30.08,SE,144,7.0,11.0,0,0.00,,---,0.00,VWS V14.00,2013-06-21 05:20:00,
2013-06-21 00:25:00,73.2,0.0,30.08,SE,137,3.0,11.0,0,0.00,,---,0.00,VWS V14.00,2013-06-21 05:25:00,
2013-06-21 00:30:00,73.0,0.0,30.08,SE,137,6.0,11.0,0,0.00,,---,0.00,VWS V14.00,2013-06-21 05:30:00,
2013-06-21 00:35:00,72.8,0.0,30.08,SE,130,0.0,9.0,0,0.00,,---,0.00,VWS V14.00,2013-06-21 05:35:00,
2013-06-21 00:40:00,72.7,0.0,30.08,SE,140,0.0,9.0,0,0.00,,---,0.00,VWS V14.00,2013-06-21 05:40:00,
2013-06-21 00:45:00,72.5,0.0,30.07,SE,132,0.0,9.0,0,0.00,,---,0.00,VWS V14.00,2013-06-21 05:45:00,
2013-06-21 00:50:00,72.3,0.0,30.07,SE,136,1.0,9.0,0,0.00,,---,0.00,VWS V14.00,2013-06-21 05:50:00,
2013-06-21 00:55:00,72.1,0.0,30.07,SE,136,5.0,10.0,0,0.00,,---,0.00,VWS V14.00,2013-06-21 05:55:00,
2013-06-21 01:01:00,72.1,0.0,30.07,SE,140,0.0,10.0,0,0.00,,---,0.00,VWS V14.00,2013-06-21 06:01:00,
2013-06-21 01:06:00,72.0,0.0,30.07,SE,137,0.0,1.0,0,0.00,,---,0.00,VWS V14.00,2013-06-21 06:06:00,
2013-06-21 01:11:00,72.0,0.0,30.08,SE,138,0.0,5.0,0,0.00,,---,0.00,VWS V14.00,2013-06-21 06:11:00,
2013-06-21 01:16:00,71.8,0.0,30.08,SE,136,0.0,5.0,0,0.00,,---,0.00,VWS V14.00,2013-06-21 06:16:00,
2013-06-21 01:21:00,71.8,0.0,30.07,SE,136,0.0,5.0,0,0.00,,---,0.00,VWS V14.00,2013-06-21 06:21:00,
2013-06-21 01:26:00,71.8,0.0,30.08,SE,135,0.0,5.0,0,0.00,,---,0.00,VWS V14.00,2013-06-21 06:26:00,
2013-06-21 01:31:00,71.8,0.0,30.07,SE,136,0.0,0.0,0,0.00,,---,0.00,VWS V14.00,2013-06-21 06:31:00,
2013-06-21 01:36:00,71.8,0.0,30.07,SE,136,0.0,0.0,0,0.00,,---,0.00,VWS V14.00,2013-06-21 06:36:00,
2013-06-21 01:41:00,71.6,0.0,30.07,SE,135,0.0,0.0,0,0.00,,---,0.00,VWS V14.00,2013-06-21 06:41:00,
2013-06-21 01:47:00,71.6,0.0,30.07,SE,138,0.0,0.0,0,0.00,,---,0.00,VWS V14.00,2013-06-21 06:47:00,
2013-06-21 01:52:00,71.6,0.0,30.07,SE,137,0.0,1.0,0,0.00,,---,0.00,VWS V14.00,2013-06-21 06:52:00,
2013-06-21 01:57:00,71.6,0.0,30.07,SE,137,0.0,1.0,0,0.00,,---,0.00,VWS V14.00,2013-06-21 06:57:00,
2013-06-21 02:02:00,71.5,0.0,30.07,SE,136,0.0,0.0,0,0.00,,---,0.00,VWS V14.00,2013-06-21 07:02:00,
2013-06-21 02:07:00,71.6,0.0,30.07,SE,138,0.0,3.0,0,0.00,,---,0.00,VWS V14.00,2013-06-21 07:07:00,
2013-06-21 02:12:00,71.6,0.0,30.07,SE,138,0.0,3.0,0,0.00,,---,0.00,VWS V14.00,2013-06-21 07:12:00,
2013-06-21 02:17:00,71.8,0.0,30.07,SE,138,0.0,4.0,0,0.00,,---,0.00,VWS V14.00,2013-06-21 07:17:00,
2013-06-21 02:22:00,71.6,0.0,30.07,SE,138,0.0,4.0,0,0.00,,---,0.00,VWS V14.00,2013-06-21 07:22:00,
2013-06-21 02:27:00,71.6,0.0,30.07,SE,138,0.0,4.0,0,0.00,,---,0.00,VWS V14.00,2013-06-21 07:27:00,
2013-06-21 02:33:00,71.8,0.0,30.07,SE,138,0.0,0.0,0,0.00,,---,0.00,VWS V14.00,2013-06-21 07:33:00,
2013-06-21 02:38:00,71.6,0.0,30.06,SE,138,0.0,0.0,0,0.00,,---,0.00,VWS V14.00,2013-06-21 07:38:00,
2013-06-21 02:43:00,71.8,0.0,30.06,SE,138,0.0,3.0,0,0.00,,---,0.00,VWS V14.00,2013-06-21 07:43:00,
2013-06-21 02:48:00,72.0,0.0,30.06,SE,138,0.0,3.0,0,0.00,,---,0.00,VWS V14.00,2013-06-21 07:48:00,
2013-06-21 02:53:00,72.0,0.0,30.06,SE,138,0.0,3.0,0,0.00,,---,0.00,VWS V14.00,2013-06-21 07:53:00,
2013-06-21 02:58:00,71.8,0.0,30.06,SE,138,0.0,3.0,0,0.00,,---,0.00,VWS V14.00,2013-06-21 07:58:00,
2013-06-21 03:03:00,71.8,0.0,30.06,SE,135,0.0,0.0,0,0.00,,---,0.00,VWS V14.00,2013-06-21 08:03:00,
2013-06-21 03:08:00,71.8,0.0,30.06,SE,134,0.0,5.0,0,0.00,,---,0.00,VWS V14.00,2013-06-21 08:08:00,
2013-06-21 03:13:00,71.8,0.0,30.06,SE,132,0.0,5.0,0,0.00,,---,0.00,VWS V14.00,2013-06-21 08:13:00,
2013-06-21 03:19:00,72.0,0.0,30.06,SE,136,0.0,5.0,0,0.00,,---,0.00,VWS V14.00,2013-06-21 08:19:00,
2013-06-21 03:24:00,72.1,0.0,30.06,SE,138,0.0,5.0,0,0.00,,---,0.00,VWS V14.00,2013-06-21 08:24:00,
2013-06-21 03:29:00,72.1,0.0,30.06,SE,136,0.0,5.0,0,0.00,,---,0.00,VWS V14.00,2013-06-21 08:29:00,
2013-06-21 03:34:00,72.1,0.0,30.06,SE,141,4.0,7.0,0,0.00,,---,0.00,VWS V14.00,2013-06-21 08:34:00,
2013-06-21 03:39:00,72.0,0.0,30.05,SE,141,5.0,9.0,0,0.00,,---,0.00,VWS V14.00,2013-06-21 08:39:00,
2013-06-21 03:44:00,72.0,0.0,30.06,SE,134,0.0,9.0,0,0.00,,---,0.00,VWS V14.00,2013-06-21 08:44:00,
2013-06-21 03:49:00,72.0,0.0,30.06,SSE,152,1.0,9.0,0,0.00,,---,0.00,VWS V14.00,2013-06-21 08:49:00,
2013-06-21 03:54:00,71.8,0.0,30.06,SE,134,0.0,9.0,0,0.00,,---,0.00,VWS V14.00,2013-06-21 08:54:00,
2013-06-21 03:59:00,71.8,0.0,30.05,SE,138,0.0,9.0,0,0.00,,---,0.00,VWS V14.00,2013-06-21 08:59:00,
2013-06-21 04:04:00,72.0,0.0,30.05,SE,140,0.0,6.0,0,0.00,,---,0.00,VWS V14.00,2013-06-21 09:04:00,
2013-06-21 04:10:00,72.0,0.0,30.05,SE,135,0.0,6.0,0,0.00,,---,0.00,VWS V14.00,2013-06-21 09:10:00,
2013-06-21 04:15:00,71.8,0.0,30.05,SE,142,0.0,10.0,0,0.00,,---,0.00,VWS V14.00,2013-06-21 09:15:00,
2013-06-21 04:20:00,72.0,0.0,30.05,SSE,152,0.0,10.0,0,0.00,,---,0.00,VWS V14.00,2013-06-21 09:20:00,
2013-06-21 04:25:00,72.0,0.0,30.04,SE,125,0.0,10.0,0,0.00,,---,0.00,VWS V14.00,2013-06-21 09:25:00,
2013-06-21 04:30:00,71.8,0.0,30.04,SE,134,0.0,10.0,0,0.00,,---,0.00,VWS V14.00,2013-06-21 09:30:00,
2013-06-21 04:35:00,71.8,0.0,30.04,SE,128,0.0,3.0,0,0.00,,---,0.00,VWS V14.00,2013-06-21 09:35:00,
2013-06-21 04:40:00,72.0,0.0,30.04,SE,138,0.0,10.0,0,0.00,,---,0.00,VWS V14.00,2013-06-21 09:40:00,
2013-06-21 04:45:00,72.1,0.0,30.04,SE,131,0.0,11.0,0,0.00,,---,0.00,VWS V14.00,2013-06-21 09:45:00,
2013-06-21 04:50:00,72.3,0.0,30.04,SE,134,0.0,11.0,0,0.00,,---,0.00,VWS V14.00,2013-06-21 09:50:00,
2013-06-21 04:56:00,72.3,0.0,30.04,SE,131,0.0,11.0,0,0.00,,---,0.00,VWS V14.00,2013-06-21 09:56:00,
2013-06-21 05:01:00,72.3,0.0,30.05,SE,144,7.0,11.0,0,0.00,,---,0.00,VWS V14.00,2013-06-21 10:01:00,
2013-06-21 05:06:00,72.7,0.0,30.06,SE,141,0.0,7.0,0,0.00,,---,0.00,VWS V14.00,2013-06-21 10:06:00,
2013-06-21 05:11:00,72.7,0.0,30.07,SE,139,0.0,7.0,0,0.00,,---,0.00,VWS V14.00,2013-06-21 10:11:00,
2013-06-21 05:16:00,72.8,0.0,30.07,SE,140,0.0,7.0,0,0.00,,---,0.00,VWS V14.00,2013-06-21 10:16:00,
2013-06-21 05:21:00,73.0,0.0,30.07,SE,132,0.0,7.0,0,0.00,,---,0.00,VWS V14.00,2013-06-21 10:21:00,
2013-06-21 05:26:00,73.2,0.0,30.07,SE,132,0.0,7.0,0,0.00,,---,0.00,VWS V14.00,2013-06-21 10:26:00,
2013-06-21 05:31:00,73.3,0.0,30.07,SE,132,0.0,0.0,0,0.00,,---,0.00,VWS V14.00,2013-06-21 10:31:00,
2013-06-21 05:36:00,73.2,0.0,30.07,SE,132,0.0,0.0,0,0.00,,---,0.00,VWS V14.00,2013-06-21 10:36:00,
2013-06-21 05:42:00,73.0,0.0,30.07,SE,134,0.0,5.0,0,0.00,,---,0.00,VWS V14.00,2013-06-21 10:42:00,
2013-06-21 05:47:00,73.0,0.0,30.07,SE,143,0.0,5.0,0,0.00,,---,0.00,VWS V14.00,2013-06-21 10:47:00,
2013-06-21 05:52:00,73.0,0.0,30.06,SE,136,0.0,8.0,0,0.00,,---,0.00,VWS V14.00,2013-06-21 10:52:00,
2013-06-21 05:57:00,73.0,0.0,30.06,SE,137,0.0,10.0,0,0.00,,---,0.00,VWS V14.00,2013-06-21 10:57:00,
2013-06-21 06:02:00,73.0,0.0,30.05,SE,136,4.0,8.0,0,0.00,,---,0.00,VWS V14.00,2013-06-21 11:02:00,
2013-06-21 06:07:00,73.0,0.0,30.06,SE,134,0.0,8.0,0,0.00,,---,0.00,VWS V14.00,2013-06-21 11:07:00,
2013-06-21 06:12:00,73.0,0.0,30.05,SE,133,0.0,8.0,0,0.00,,---,0.00,VWS V14.00,2013-06-21 11:12:00,
2013-06-21 06:17:00,73.2,0.0,30.04,SE,135,0.0,8.0,0,0.00,,---,0.00,VWS V14.00,2013-06-21 11:17:00,
2013-06-21 06:22:00,73.5,0.0,30.03,SE,132,6.0,13.0,0,0.00,,---,0.00,VWS V14.00,2013-06-21 11:22:00,
2013-06-21 06:28:00,73.5,0.0,30.03,SE,139,7.0,13.0,0,0.00,,---,0.00,VWS V14.00,2013-06-21 11:28:00,
2013-06-21 06:33:00,73.7,0.0,30.02,SE,136,8.0,10.0,0,0.00,,---,0.00,VWS V14.00,2013-06-21 11:33:00,
2013-06-21 06:38:00,73.7,0.0,30.03,SE,133,0.0,12.0,0,0.00,,---,0.00,VWS V14.00,2013-06-21 11:38:00,
2013-06-21 06:43:00,74.0,0.0,30.04,SE,126,0.0,12.0,0,0.00,,---,0.00,VWS V14.00,2013-06-21 11:43:00,
2013-06-21 06:48:00,74.2,0.0,30.05,SE,138,9.0,12.0,0,0.00,,---,0.00,VWS V14.00,2013-06-21 11:48:00,
2013-06-21 06:53:00,74.4,0.0,30.05,SSE,150,0.0,12.0,0,0.00,,---,0.00,VWS V14.00,2013-06-21 11:53:00,
2013-06-21 06:58:00,74.6,0.0,30.05,SE,138,0.0,12.0,0,0.00,,---,0.00,VWS V14.00,2013-06-21 11:58:00,
2013-06-21 07:03:00,74.7,0.0,30.05,SE,134,0.0,0.0,0,0.00,,---,0.00,VWS V14.00,2013-06-21 12:03:00,
2013-06-21 07:08:00,74.9,0.0,30.05,SE,134,0.0,7.0,0,0.00,,---,0.00,VWS V14.00,2013-06-21 12:08:00,
2013-06-21 07:14:00,74.9,0.0,30.04,SE,140,0.0,7.0,0,0.00,,---,0.00,VWS V14.00,2013-06-21 12:14:00,
2013-06-21 07:19:00,74.9,0.0,30.04,SE,128,3.0,12.0,0,0.00,,---,0.00,VWS V14.00,2013-06-21 12:19:00,
2013-06-21 07:24:00,75.1,0.0,30.04,SE,132,1.0,12.0,0,0.00,,---,0.00,VWS V14.00,2013-06-21 12:24:00,
2013-06-21 07:29:00,75.3,0.0,30.03,SE,125,0.0,13.0,0,0.00,,---,0.00,VWS V14.00,2013-06-21 12:29:00,
2013-06-21 07:34:00,75.3,0.0,30.02,South,171,0.0,15.0,0,0.00,,---,0.00,VWS V14.00,2013-06-21 12:34:00,
2013-06-21 07:39:00,75.3,0.0,30.02,SE,132,9.0,15.0,0,0.00,,---,0.00,VWS V14.00,2013-06-21 12:39:00,
2013-06-21 07:44:00,75.3,0.0,30.02,SSE,148,4.0,15.0,0,0.00,,---,0.00,VWS V14.00,2013-06-21 12:44:00,
2013-06-21 07:49:00,75.3,0.0,30.02,SE,130,0.0,15.0,0,0.00,,---,0.00,VWS V14.00,2013-06-21 12:49:00,
2013-06-21 07:54:00,75.4,0.0,30.02,SE,138,0.0,15.0,0,0.00,,---,0.00,VWS V14.00,2013-06-21 12:54:00,
2013-06-21 08:00:00,75.4,0.0,30.01,SE,136,6.0,15.0,0,0.00,,---,0.00,VWS V14.00,2013-06-21 13:00:00,
2013-06-21 08:05:00,75.6,0.0,30.01,SE,145,0.0,11.0,0,0.00,,---,0.00,VWS V14.00,2013-06-21 13:05:00,
2013-06-21 08:10:00,75.6,0.0,30.01,SSE,154,0.0,11.0,0,0.00,,---,0.00,VWS V14.00,2013-06-21 13:10:00,
2013-06-21 08:15:00,75.8,0.0,30.02,SE,144,0.0,11.0,0,0.00,,---,0.00,VWS V14.00,2013-06-21 13:15:00,
2013-06-21 08:20:00,75.8,0.0,30.02,SE,138,0.0,11.0,0,0.00,,---,0.00,VWS V14.00,2013-06-21 13:20:00,
2013-06-21 08:25:00,76.0,0.0,30.03,SE,133,0.0,11.0,0,0.00,,---,0.00,VWS V14.00,2013-06-21 13:25:00,
2013-06-21 08:30:00,76.0,0.0,30.03,ESE,123,0.0,11.0,0,0.00,,---,0.00,VWS V14.00,2013-06-21 13:30:00,
2013-06-21 08:35:00,76.1,0.0,30.04,SSE,148,0.0,0.0,0,0.00,,---,0.00,VWS V14.00,2013-06-21 13:35:00,
2013-06-21 08:40:00,76.1,0.0,30.04,SE,131,0.0,0.0,0,0.00,,---,0.00,VWS V14.00,2013-06-21 13:40:00,
2013-06-21 08:46:00,76.3,0.0,30.04,SSE,152,0.0,7.0,0,0.00,,---,0.00,VWS V14.00,2013-06-21 13:46:00,
2013-06-21 08:51:00,76.3,0.0,30.05,SE,133,0.0,7.0,0,0.00,,---,0.00,VWS V14.00,2013-06-21 13:51:00,
2013-06-21 08:56:00,76.3,0.0,30.04,SE,131,0.0,7.0,0,0.00,,---,0.00,VWS V14.00,2013-06-21 13:56:00,
2013-06-21 09:01:00,76.3,0.0,30.04,SE,133,0.0,7.0,0,0.00,,---,0.00,VWS V14.00,2013-06-21 14:01:00,
2013-06-21 09:06:00,76.3,0.0,30.03,South,179,0.0,0.0,0,0.00,,---,0.00,VWS V14.00,2013-06-21 14:06:00,
2013-06-21 09:11:00,76.3,0.0,30.03,SE,136,0.0,12.0,0,0.00,,---,0.00,VWS V14.00,2013-06-21 14:11:00,
2013-06-21 09:16:00,76.3,0.0,30.02,SE,140,0.0,12.0,0,0.00,,---,0.00,VWS V14.00,2013-06-21 14:16:00,
2013-06-21 09:21:00,76.3,0.0,30.03,ESE,119,0.0,12.0,0,0.00,,---,0.00,VWS V14.00,2013-06-21 14:21:00,
2013-06-21 09:26:00,76.3,0.0,30.04,SE,140,0.0,12.0,0,0.00,,---,0.00,VWS V14.00,2013-06-21 14:26:00,
2013-06-21 09:31:00,76.3,0.0,30.04,SE,125,0.0,0.0,0,0.00,,---,0.00,VWS V14.00,2013-06-21 14:31:00,
2013-06-21 09:36:00,76.5,0.0,30.03,SE,127,0.0,1.0,0,0.00,,---,0.00,VWS V14.00,2013-06-21 14:36:00,
2013-06-21 09:41:00,76.5,0.0,30.03,SE,135,0.0,10.0,0,0.00,,---,0.00,VWS V14.00,2013-06-21 14:41:00,
2013-06-21 09:46:00,76.5,0.0,30.03,SE,136,0.0,10.0,0,0.00,,---,0.00,VWS V14.00,2013-06-21 14:46:00,
2013-06-21 09:51:00,76.7,0.0,30.04,ESE,119,9.0,10.0,0,0.00,,---,0.00,VWS V14.00,2013-06-21 14:51:00,
2013-06-21 09:57:00,76.8,0.0,30.04,SE,135,0.0,10.0,0,0.00,,---,0.00,VWS V14.00,2013-06-21 14:57:00,
2013-06-21 10:02:00,76.8,0.0,30.04,SE,139,0.0,1.0,0,0.00,,---,0.00,VWS V14.00,2013-06-21 15:02:00,
2013-06-21 10:07:00,77.0,0.0,30.04,SE,135,0.0,13.0,0,0.00,,---,0.00,VWS V14.00,2013-06-21 15:07:00,
2013-06-21 10:12:00,76.8,0.0,30.09,WNW,294,28.0,32.0,0,0.00,,---,0.00,VWS V14.00,2013-06-21 15:12:00,
2013-06-21 10:17:00,73.2,0.0,30.09,WNW,296,24.0,36.0,0,0.00,,---,0.00,VWS V14.00,2013-06-21 15:17:00,